Regional Weather Roundup
Issued by NWS

Home | Current Version | Previous Version | Text Only | Print | Product List | Glossary Off
Versions: 1 2 3 4 5 6 7 8 9 10 11 12 13 14 15 16 17 18 19 20 21 22 23 24 25 26 27 28 29 30 31 32 33 34 35 36 37 38 39 40 41 42 43 44 45 46 47 48 49 50

000
ASUS43 KFSD 230710
RWRSD

WEATHER ROUNDUP FOR SOUTH DAKOTA
NATIONAL WEATHER SERVICE SIOUX FALLS SD
200 AM CDT THU MAR 23 2017

NOTE: "FAIR" INDICATES FEW OR NO CLOUDS BELOW 12,000 FEET WITH NO
SIGNIFICANT WEATHER AND/OR OBSTRUCTIONS TO VISIBILITY.


SDZ001>005-009-010-012>017-230800-
NORTHWEST AND NORTH CENTRAL SOUTH DAKOTA

CITY           SKY/WX    TMP DP  RH WIND       PRES   REMARKS
BUFFALO          N/A     42  36  79 NE12      29.68S
FAITH            N/A     42  36  79 S16       29.72F
MOBRIDGE       CLOUDY    41  28  60 SE15      29.77F
$$

SDZ012>016-024>037-041>051-057-063-072>074-230800-
SOUTHWEST AND SOUTH CENTRAL SOUTH DAKOTA

CITY           SKY/WX    TMP DP  RH WIND       PRES   REMARKS
RAPID CTY ARPT CLOUDY    48  38  68 S7        29.72F
PIERRE         CLOUDY    44  30  57 SE13      29.83F
CUSTER         CLOUDY    44  34  67 CALM      29.78F
ELLSWORTH AFB  CLOUDY    48  39  70 SW9       29.71F
PHILIP         PTCLDY    47  35  63 S8        29.77F
PINE RIDGE     CLOUDY    48  37  65 SW5G18    29.78F
SPEARFISH      CLOUDY    46  41  81 W17       29.79R
WINNER         FAIR      47  29  49 S16       29.87F
$$

SDZ004>011-016>023-039-040-230800-
NORTHEAST SOUTH DAKOTA

CITY           SKY/WX    TMP DP  RH WIND       PRES   REMARKS
ABERDEEN       CLOUDY    36  26  67 S23G31    29.92F
WATERTOWN      CLOUDY    36  25  64 S18G26    29.99S
BROOKINGS      CLOUDY    37  26  64 S18G26    30.02F
SISSETON         N/A     34  27  75 S16       30.00F WCI  24
$$

SDZ017-020-022-023-036>040-048>070-230800-
SOUTHEAST SOUTH DAKOTA

CITY           SKY/WX    TMP DP  RH WIND       PRES   REMARKS
SIOUX FALLS    CLOUDY    40  26  57 S15G25    30.06F
HURON          CLOUDY    39  29  67 SE14G25   29.95F
CHAMBERLAIN    CLOUDY    47  30  51 SE12G20   29.89F
MITCHELL       CLOUDY    42  29  59 S20G29    29.98F
YANKTON        CLOUDY    43  27  52 SE17      30.03F
$$

ABBREVIATIONS USED IN REMARKS
   TC - TEMPERATURE IN CELSIUS
  WCI - WIND CHILL INDEX
   HX - HEAT INDEX
  VSB - VISIBILITY





USA.gov is the U.S. government's official web portal to all federal, state and local government web resources and services.